EW4570 Weather Reports


Display with metric or nautical units.
time (UTC)temp
F
wind
direction
speed
MPH
gust
MPH
rain 1hr
in
rain 24hr
in
rain mn
in
humidity
%
barometer
mb
20260506113057 66 240 5.0 14.0 0.00 0.01 0.00 74 1009.2
20260506111555 65 201 4.0 12.0 0.00 0.01 0.00 74 1009.2
20260506104556 65 246 3.0 11.0 0.00 0.01 0.00 75 1009.1
20260506103051 65 228 1.0 11.0 0.00 0.01 0.00 75 1009.2
20260506101550 65 214 3.0 11.0 0.00 0.01 0.00 76 1009.0
20260506100049 64 168 3.0 11.0 0.00 0.01 0.00 76 1008.8
20260506094609 64 203 5.0 11.0 0.00 0.01 0.00 76 1008.8
20260506093047 64 184 2.0 12.0 0.00 0.01 0.00 76 1008.8
20260506091548 65 212 3.0 10.0 0.00 0.01 0.00 75 1008.9
20260506090042 65 228 3.0 12.0 0.00 0.01 0.00 75 1009.0
20260506084543 65 219 2.0 15.0 0.00 0.01 0.00 74 1009.1
20260506083039 65 215 4.0 13.0 0.00 0.01 0.00 74 1009.1
20260506081536 66 250 4.0 9.0 0.00 0.01 0.00 73 1009.1
20260506073031 66 206 2.0 15.0 0.00 0.01 0.00 71 1009.1
20260506071532 67 216 2.0 13.0 0.00 0.01 0.00 70 1009.2
20260506061523 67 222 2.0 13.0 0.00 0.01 0.00 67 1009.3
20260506044510 69 208 2.0 11.0 0.00 0.01 0.00 62 1009.8
20260506043008 69 155 2.0 15.0 0.00 0.01 0.00 61 1009.9
20260506041512 70 170 3.0 17.0 0.00 0.01 0.00 60 1009.8
20260506040006 70 235 4.0 16.0 0.00 0.01 0.01 59 1009.6
20260506034503 70 199 4.0 15.0 0.00 0.01 0.01 58 1009.7
20260506033002 70 239 5.0 16.0 0.00 0.01 0.01 57 1009.7
20260506031503 71 144 3.0 15.0 0.00 0.01 0.01 57 1009.6
20260506030100 71 240 5.0 17.0 0.00 0.01 0.01 56 1009.6
20260506024603 72 237 6.0 13.0 0.00 0.01 0.01 55 1009.6
20260506023102 72 193 3.0 14.0 0.00 0.01 0.01 55 1009.7
20260506021558 72 161 5.0 13.0 0.00 0.01 0.01 54 1009.6
20260506020058 73 210 6.0 18.0 0.00 0.01 0.01 53 1009.4
20260506014657 73 234 5.0 18.0 0.00 0.01 0.01 51 1009.3
20260506013056 76 147 2.0 14.0 0.00 0.01 0.01 45 1009.2
20260506011556 76 194 6.0 18.0 0.00 0.01 0.01 42 1009.0
20260506011525 76 218 5.0 18.0 0.00 0.01 0.01 42 1009.0
20260506010054 77 249 6.0 16.0 0.00 0.01 0.01 41 1008.8
20260506004555 77 223 5.0 19.0 0.00 0.01 0.01 40 1008.5
20260506003053 78 218 3.0 14.0 0.00 0.01 0.01 39 1008.5
20260506001552 79 209 2.0 11.0 0.00 0.01 0.01 36 1008.4
20260506000053 79 219 4.0 12.0 0.00 0.01 0.01 35 1008.1
20260505234554 79 213 3.0 11.0 0.00 0.01 0.01 33 1008.2
20260505233051 80 223 3.0 17.0 0.00 0.01 0.01 33 1007.9
20260505231650 80 253 5.0 19.0 0.00 0.01 0.01 32 1007.8
20260505230057 81 219 5.0 16.0 0.00 0.01 0.01 30 1007.6
20260505224549 81 209 3.0 18.0 0.00 0.01 0.01 30 1007.3
20260505223048 81 213 4.0 17.0 0.00 0.01 0.01 29 1007.2
20260505221547 82 181 8.0 20.0 0.00 0.01 0.01 28 1007.1
20260505220047 82 227 8.0 18.0 0.00 0.01 0.01 29 1007.1
20260505214546 83 240 11.0 19.0 0.00 0.01 0.01 28 1007.0
20260505213053 83 252 11.0 21.0 0.00 0.01 0.01 29 1006.8
20260505211645 83 194 5.0 27.0 0.00 0.01 0.01 31 1006.7
20260505210043 83 258 7.0 18.0 0.00 0.01 0.01 29 1006.6
20260505204543 83 182 9.0 20.0 0.00 0.01 0.01 29 1006.8
20260505203041 83 278 8.0 21.0 0.00 0.01 0.01 30 1006.8
20260505201541 83 238 5.0 16.0 0.00 0.01 0.01 30 1007.0
20260505200043 83 211 7.0 19.0 0.00 0.01 0.01 30 1006.9
20260505194539 83 249 8.0 28.0 0.00 0.01 0.01 30 1007.2
20260505193036 83 186 6.0 22.0 0.00 0.01 0.01 32 1007.4
20260505191535 83 214 8.0 19.0 0.00 0.01 0.01 31 1007.7
20260505190037 83 218 8.0 26.0 0.00 0.01 0.01 31 1007.7
20260505184530 83 221 6.0 30.0 0.00 0.01 0.01 34 1008.1
20260505183035 83 215 5.0 20.0 0.00 0.01 0.01 35 1008.3
20260505181526 83 218 4.0 14.0 0.00 0.01 0.01 37 1008.3
20260505180042 82 213 3.0 14.0 0.00 0.01 0.01 37 1008.4
20260505174523 82 194 4.0 14.0 0.00 0.01 0.01 38 1008.4
20260505173020 82 134 5.0 17.0 0.00 0.01 0.01 39 1008.7
20260505171517 81 228 2.0 14.0 0.00 0.01 0.01 40 1008.8
20260505170013 80 286 4.0 14.0 0.00 0.01 0.01 41 1009.0
20260505164510 79 194 3.0 10.0 0.00 0.01 0.01 43 1009.2
20260505163009 79 191 3.0 9.0 0.00 0.01 0.01 44 1009.4
20260505161503 78 256 2.0 7.0 0.00 0.01 0.01 45 1009.6
20260505153053 75 338 1.0 10.0 0.00 0.01 0.01 50 1010.2
20260505151551 74 221 2.0 7.0 0.00 0.01 0.01 51 1010.4
20260505124517 63 211 3.0 8.0 0.00 0.01 0.01 73 1010.5
20260505123027 61 216 1.0 4.0 0.00 0.01 0.01 76 1010.6
20260505121514 59 213 0.0 3.0 0.00 0.01 0.01 79 1010.7
20260505120022 59 225 0.0 3.0 0.01 0.01 0.01 80 1010.7
20260505114512 59 211 1.0 4.0 0.01 0.01 0.01 79 1010.7